Tiempo cada hora Allieres

Hoy, 27 Julio, Martes

Tiempo Temperatura Precipitaciones Viento Presión Humedad
00:00 +11°C° 0 mm 1 mps 644 mmHg 91%
01:00 +11°C° 0 mm 1 mps 643 mmHg 90%
02:00 +10°C° 0 mm 1 mps 643 mmHg 90%
03:00 +10°C° 0 mm 1 mps 643 mmHg 90%
04:00 +11°C° 0 mm 1 mps 643 mmHg 88%
05:00 +12°C° 0 mm 1 mps 643 mmHg 86%
06:00 +13°C° 0 mm 1 mps 643 mmHg 83%
07:00 +14°C° 0 mm 1 mps 644 mmHg 76%
08:00 +16°C° 0 mm 1 mps 644 mmHg 68%
09:00 +19°C° 0 mm 1 mps 645 mmHg 60%
10:00 +20°C° 0 mm 1 mps 645 mmHg 55%
11:00 +20°C° 0 mm 2 mps 645 mmHg 51%
12:00 +21°C° 0 mm 2 mps 645 mmHg 46%
13:00 +21°C° 0 mm 2 mps 645 mmHg 48%
14:00 +21°C° 0 mm 2 mps 645 mmHg 49%
15:00 +21°C° 0 mm 2 mps 645 mmHg 51%
16:00 +20°C° 0 mm 2 mps 645 mmHg 56%
17:00 +19°C° 0 mm 2 mps 644 mmHg 61%
18:00 +19°C° 0 mm 1 mps 644 mmHg 66%
19:00 +16°C° 0.1 mm 1 mps 644 mmHg 71%
20:00 +14°C° 0.1 mm 1 mps 644 mmHg 77%
21:00 +13°C° 0.1 mm 1 mps 644 mmHg 83%
22:00 +13°C° 0.1 mm 1 mps 644 mmHg 83%
23:00 +12°C° 0.1 mm 1 mps 644 mmHg 84%

Mañana, 28 Julio, Miércoles

Tiempo Temperatura Precipitaciones Viento Presión Humedad
00:00 +12°C° 0.1 mm 1 mps 644 mmHg 85%
01:00 +12°C° 0.1 mm 1 mps 644 mmHg 86%
02:00 +12°C° 0.1 mm 1 mps 644 mmHg 86%
03:00 +12°C° 0.1 mm 1 mps 644 mmHg 87%
04:00 +12°C° 0.1 mm 1 mps 644 mmHg 87%
05:00 +13°C° 0.1 mm 1 mps 644 mmHg 87%
06:00 +13°C° 0.1 mm 1 mps 644 mmHg 88%
07:00 +15°C° 0 mm 1 mps 645 mmHg 78%
08:00 +18°C° 0 mm 1 mps 645 mmHg 68%
09:00 +20°C° 0 mm 1 mps 646 mmHg 58%
10:00 +21°C° 0 mm 1 mps 646 mmHg 53%
11:00 +23°C° 0 mm 1 mps 646 mmHg 47%
12:00 +24°C° 0 mm 1 mps 647 mmHg 42%
13:00 +24°C° 0 mm 1 mps 646 mmHg 44%
14:00 +24°C° 0 mm 1 mps 646 mmHg 45%
15:00 +24°C° 0 mm 1 mps 646 mmHg 47%
16:00 +22°C° 0.1 mm 1 mps 646 mmHg 56%
17:00 +21°C° 0.1 mm 1 mps 646 mmHg 65%
18:00 +20°C° 0.1 mm 1 mps 645 mmHg 74%
19:00 +18°C° 0.1 mm 1 mps 645 mmHg 76%
20:00 +16°C° 0.1 mm 1 mps 645 mmHg 79%
21:00 +14°C° 0.1 mm 1 mps 644 mmHg 82%
22:00 +14°C° 0 mm 1 mps 644 mmHg 82%
23:00 +14°C° 0 mm 1 mps 644 mmHg 81%

Pasado mañana, 29 Julio, Jueves

Tiempo Temperatura Precipitaciones Viento Presión Humedad
00:00 +13°C° 0 mm 1 mps 644 mmHg 81%
01:00 +13°C° 0 mm 1 mps 644 mmHg 80%
02:00 +13°C° 0 mm 1 mps 644 mmHg 80%
03:00 +13°C° 0 mm 1 mps 644 mmHg 79%
04:00 +14°C° 0 mm 1 mps 644 mmHg 78%
05:00 +14°C° 0 mm 1 mps 644 mmHg 76%
06:00 +14°C° 0 mm 0 mps 645 mmHg 75%
07:00 +18°C° 0 mm 1 mps 645 mmHg 72%
08:00 +19°C° 0 mm 1 mps 645 mmHg 68%
09:00 +20°C° 0 mm 1 mps 646 mmHg 65%
10:00 +21°C° 0.1 mm 1 mps 646 mmHg 63%
11:00 +22°C° 0.1 mm 1 mps 646 mmHg 61%
12:00 +23°C° 0.1 mm 1 mps 646 mmHg 59%
13:00 +23°C° 0.1 mm 1 mps 646 mmHg 57%
14:00 +24°C° 0.1 mm 1 mps 646 mmHg 56%
15:00 +24°C° 0.1 mm 1 mps 646 mmHg 54%
16:00 +23°C° 0.2 mm 1 mps 645 mmHg 62%
17:00 +22°C° 0.2 mm 1 mps 645 mmHg 69%
18:00 +21°C° 0.2 mm 1 mps 644 mmHg 77%
19:00 +19°C° 0.3 mm 1 mps 644 mmHg 81%
20:00 +16°C° 0.3 mm 1 mps 644 mmHg 85%
21:00 +15°C° 0.3 mm 1 mps 644 mmHg 90%
22:00 +14°C° 0.3 mm 1 mps 643 mmHg 90%
23:00 +14°C° 0.3 mm 1 mps 643 mmHg 91%

30 Julio, Viernes

Tiempo Temperatura Precipitaciones Viento Presión Humedad
00:00 +13°C° 0.3 mm 1 mps 643 mmHg 92%
01:00 +13°C° 0.3 mm 1 mps 643 mmHg 92%
02:00 +13°C° 0.3 mm 1 mps 643 mmHg 93%
03:00 +12°C° 0.3 mm 1 mps 642 mmHg 93%
04:00 +13°C° 0.5 mm 1 mps 643 mmHg 92%
05:00 +14°C° 0.5 mm 1 mps 643 mmHg 92%
06:00 +13°C° 0.5 mm 0 mps 643 mmHg 91%
07:00 +15°C° 0.2 mm 0 mps 643 mmHg 85%
08:00 +16°C° 0.2 mm 0 mps 644 mmHg 79%
09:00 +17°C° 0.2 mm 0 mps 644 mmHg 74%
10:00 +21°C° 0.2 mm 1 mps 644 mmHg 69%
11:00 +22°C° 0.2 mm 1 mps 644 mmHg 64%
12:00 +23°C° 0.2 mm 2 mps 644 mmHg 60%
13:00 +23°C° 0.8 mm 2 mps 644 mmHg 63%
14:00 +21°C° 0.8 mm 2 mps 644 mmHg 66%
15:00 +21°C° 0.8 mm 2 mps 644 mmHg 69%
16:00 +20°C° 1.2 mm 2 mps 643 mmHg 75%
17:00 +20°C° 1.2 mm 1 mps 643 mmHg 81%
18:00 +18°C° 1.2 mm 1 mps 643 mmHg 87%
19:00 +16°C° 0.5 mm 1 mps 642 mmHg 89%
20:00 +15°C° 0.5 mm 1 mps 642 mmHg 91%
21:00 +13°C° 0.5 mm 1 mps 642 mmHg 93%
22:00 +13°C° 0.4 mm 1 mps 642 mmHg 93%
23:00 +12°C° 0.4 mm 1 mps 642 mmHg 93%

31 Julio, Sábado

Tiempo Temperatura Precipitaciones Viento Presión Humedad
00:00 +12°C° 0.4 mm 1 mps 642 mmHg 93%
01:00 +11°C° 0.1 mm 0 mps 642 mmHg 93%
02:00 +10°C° 0.1 mm 0 mps 641 mmHg 93%
03:00 +10°C° 0.1 mm 0 mps 641 mmHg 93%
04:00 +11°C° 0 mm 0 mps 641 mmHg 93%
05:00 +11°C° 0 mm 0 mps 642 mmHg 92%
06:00 +12°C° 0 mm 0 mps 642 mmHg 92%
07:00 +14°C° 0 mm 1 mps 642 mmHg 83%
08:00 +16°C° 0 mm 1 mps 643 mmHg 74%
09:00 +18°C° 0 mm 2 mps 643 mmHg 65%
10:00 +18°C° 0 mm 2 mps 644 mmHg 60%
11:00 +19°C° 0 mm 3 mps 644 mmHg 56%
12:00 +20°C° 0 mm 3 mps 644 mmHg 51%
13:00 +20°C° 0 mm 3 mps 644 mmHg 53%
14:00 +19°C° 0 mm 3 mps 644 mmHg 54%
15:00 +19°C° 0 mm 4 mps 643 mmHg 56%
16:00 +17°C° 0.1 mm 3 mps 643 mmHg 64%
17:00 +16°C° 0.1 mm 3 mps 643 mmHg 72%
18:00 +13°C° 0.1 mm 3 mps 642 mmHg 80%
19:00 +13°C° 0.1 mm 2 mps 642 mmHg 83%
20:00 +12°C° 0.1 mm 2 mps 642 mmHg 86%
21:00 +11°C° 0.1 mm 1 mps 642 mmHg 89%
22:00 +10°C° 0.1 mm 1 mps 641 mmHg 90%
23:00 +10°C° 0.1 mm 1 mps 641 mmHg 91%

1 Agosto, Domingo

Tiempo Temperatura Precipitaciones Viento Presión Humedad
00:00 +10°C° 0.1 mm 1 mps 641 mmHg 91%
01:00 +9°C° 0.1 mm 1 mps 641 mmHg 92%
02:00 +9°C° 0.1 mm 1 mps 641 mmHg 93%
03:00 +9°C° 0.1 mm 1 mps 640 mmHg 94%
04:00 +9°C° 0.1 mm 1 mps 641 mmHg 92%
05:00 +8°C° 0.1 mm 2 mps 641 mmHg 89%
06:00 +8°C° 0.1 mm 2 mps 641 mmHg 87%
07:00 +10°C° 0 mm 3 mps 641 mmHg 78%
08:00 +11°C° 0 mm 3 mps 642 mmHg 68%
09:00 +12°C° 0 mm 4 mps 642 mmHg 58%
10:00 +13°C° 0 mm 4 mps 642 mmHg 56%
11:00 +13°C° 0 mm 4 mps 643 mmHg 54%
12:00 +14°C° 0 mm 4 mps 643 mmHg 52%
13:00 +14°C° 0 mm 4 mps 643 mmHg 52%
14:00 +14°C° 0 mm 4 mps 643 mmHg 52%
15:00 +14°C° 0 mm 4 mps 643 mmHg 52%
16:00 +14°C° 0 mm 3 mps 643 mmHg 59%
17:00 +13°C° 0 mm 3 mps 643 mmHg 66%
18:00 +13°C° 0 mm 2 mps 643 mmHg 72%
19:00 +10°C° 0 mm 2 mps 643 mmHg 78%
20:00 +9°C° 0 mm 2 mps 642 mmHg 85%
21:00 +7°C° 0 mm 2 mps 642 mmHg 91%
22:00 +7°C° 0 mm 2 mps 642 mmHg 92%
23:00 +6°C° 0 mm 2 mps 642 mmHg 93%
Mostrar más

Necesitamos Su Consentimiento

Meteoprog y nuestros Proveedores de Servicios pueden almacenar y acceder a sus datos personales como cookies, identificadores de dispositivo u otras tecnologías similares de su dispositivo y procesar dichos datos para personalizar contenido y anuncios, además de ofrecer funciones de redes sociales y analizar el tráfico.

  • Almacenar y/o acceder a información en su dispositivo

    Se puede almacenar o acceder a cookies, identificadores de dispositivo u otra información de su dispositivo para los fines anteriormente indicados.

  • Anuncios y contenido personalizados, medición de anuncios y contenido, percepciones del público, y desarrollo de productos

    Los anuncios y el contenido pueden personalizarse en base a su perfil. Se pueden añadir más datos para personalizar mejor los anuncios y contenidos. Se puede medir el rendimiento de los anuncios y contenidos. Se puede obtener la percepción sobre el público que ha visto los anuncios y contenidos. Dichos datos pueden usarse para desarrollar o mejorar la experiencia del usuario, sistemas y software.

Al hacer clic en ‘Estoy De Acuerdo’ usted permitirá el uso de las cookies, identificadores de dispositivo, balizas web u otras tecnologías similares indicadas. Su configuración puede cambiarse desde el navegador de su dispositivo.

Para ciertos fines, los intereses legítimos pueden ser considerados por encima del consentimiento. Puede leer más sobre ello en nuestra Política de Privacidad y Cookies.